Simultaneous Nadir Overpasses (SNOs) Predictions

Prediction of SNOs between GOES-16 and METOP-B Satellite Orbit:

Table of predicted SNOs for the next 14.0 days since TLE Epoch: 11/4/2022
Index Date Time (GOES-16) GOES-16 Lat,Lon METOP-B Lat,Lon Distance(km) Time Diff (sec)
1 11/05/2022 02:39:18 0.06, -75.18 -0.33, -76.91 197.07 80
2 11/06/2022 02:15:59 0.06, -75.19 0.77, -71.91 372.72 80
3 11/07/2022 14:37:31 -0.06, -75.21 0.22, -76.48 143.97 80
4 11/08/2022 14:16:52 -0.06, -75.22 -0.88, -71.48 426.20 80
5 11/10/2022 02:35:52 0.05, -75.22 -0.14, -76.07 97.20 80
6 11/11/2022 02:12:33 0.05, -75.23 0.97, -71.08 473.18 80
7 11/12/2022 14:31:25 -0.04, -75.26 0.02, -75.64 42.77 80
8 11/15/2022 02:29:45 0.03, -75.28 0.03, -75.23 5.96 80
9 11/17/2022 14:27:58 -0.03, -75.34 -0.17, -74.80 62.16 80
